EN

Hourly Weather Sarafovo

Today, 25 October, Sunday

Time Temperature Precipitation Wind Pressure Humidity
00:00 +19°C° 0 mm 1 mps 757 mmHg 62%
01:00 +19°C° 0 mm 1 mps 757 mmHg 62%
02:00 +19°C° 0 mm 1 mps 757 mmHg 63%
03:00 +19°C° 0 mm 1 mps 757 mmHg 63%
04:00 +19°C° 0 mm 1 mps 757 mmHg 63%
05:00 +19°C° 0 mm 1 mps 757 mmHg 63%
06:00 +19°C° 0 mm 1 mps 757 mmHg 63%
07:00 +20°C° 0 mm 1 mps 757 mmHg 63%
08:00 +20°C° 0 mm 1 mps 757 mmHg 63%
09:00 +22°C° 0 mm 1 mps 757 mmHg 58%
10:00 +23°C° 0 mm 1 mps 757 mmHg 52%
11:00 +25°C° 0 mm 2 mps 756 mmHg 47%
12:00 +25°C° 0 mm 2 mps 756 mmHg 46%
13:00 +26°C° 0 mm 2 mps 756 mmHg 44%
14:00 +26°C° 0 mm 2 mps 756 mmHg 43%
15:00 +25°C° 0 mm 2 mps 756 mmHg 51%
16:00 +23°C° 0 mm 2 mps 755 mmHg 59%
17:00 +21°C° 0 mm 2 mps 755 mmHg 66%
18:00 +20°C° 0 mm 2 mps 755 mmHg 70%
19:00 +19°C° 0 mm 2 mps 756 mmHg 73%
20:00 +19°C° 0 mm 2 mps 756 mmHg 77%
21:00 +18°C° 0 mm 2 mps 756 mmHg 73%
22:00 +18°C° 0 mm 2 mps 756 mmHg 70%
23:00 +17°C° 0 mm 2 mps 756 mmHg 66%

Tomorrow, 26 October, Monday

Time Temperature Precipitation Wind Pressure Humidity
00:00 +17°C° 0 mm 2 mps 756 mmHg 67%
01:00 +17°C° 0 mm 2 mps 756 mmHg 68%
02:00 +17°C° 0 mm 2 mps 756 mmHg 69%
03:00 +17°C° 0.2 mm 2 mps 756 mmHg 71%
04:00 +16°C° 0.2 mm 2 mps 756 mmHg 73%
05:00 +16°C° 0.2 mm 2 mps 756 mmHg 76%
06:00 +16°C° 0.7 mm 2 mps 756 mmHg 76%
07:00 +16°C° 0.7 mm 2 mps 756 mmHg 77%
08:00 +16°C° 0.7 mm 2 mps 757 mmHg 78%
09:00 +18°C° 0.4 mm 2 mps 757 mmHg 72%
10:00 +19°C° 0.4 mm 2 mps 757 mmHg 66%
11:00 +21°C° 0.4 mm 2 mps 757 mmHg 60%
12:00 +22°C° 0 mm 1 mps 757 mmHg 56%
13:00 +23°C° 0 mm 1 mps 757 mmHg 52%
14:00 +24°C° 0 mm 1 mps 757 mmHg 49%
15:00 +23°C° 0 mm 1 mps 757 mmHg 52%
16:00 +22°C° 0 mm 1 mps 757 mmHg 55%
17:00 +21°C° 0 mm 1 mps 757 mmHg 58%
18:00 +21°C° 0 mm 1 mps 757 mmHg 61%
19:00 +20°C° 0 mm 1 mps 757 mmHg 64%
20:00 +19°C° 0 mm 1 mps 757 mmHg 67%
21:00 +19°C° 0 mm 1 mps 758 mmHg 68%
22:00 +18°C° 0 mm 1 mps 758 mmHg 70%
23:00 +16°C° 0 mm 0 mps 758 mmHg 71%

Day after tomorrow, 27 October, Tuesday

Time Temperature Precipitation Wind Pressure Humidity
00:00 +16°C° 0 mm 0 mps 758 mmHg 72%
01:00 +15°C° 0 mm 0 mps 758 mmHg 73%
02:00 +15°C° 0 mm 0 mps 758 mmHg 74%
03:00 +15°C° 0 mm 0 mps 758 mmHg 75%
04:00 +14°C° 0 mm 0 mps 758 mmHg 76%
05:00 +14°C° 0 mm 0 mps 758 mmHg 77%
06:00 +15°C° 0 mm 0 mps 758 mmHg 76%
07:00 +15°C° 0 mm 0 mps 758 mmHg 74%
08:00 +16°C° 0 mm 0 mps 758 mmHg 73%
09:00 +20°C° 0 mm 1 mps 758 mmHg 67%
10:00 +21°C° 0 mm 1 mps 758 mmHg 62%
11:00 +23°C° 0 mm 2 mps 758 mmHg 57%
12:00 +23°C° 0 mm 2 mps 758 mmHg 55%
13:00 +24°C° 0 mm 3 mps 757 mmHg 54%
14:00 +23°C° 0 mm 4 mps 757 mmHg 52%
15:00 +22°C° 0 mm 3 mps 757 mmHg 60%
16:00 +20°C° 0 mm 3 mps 757 mmHg 68%
17:00 +19°C° 0 mm 3 mps 757 mmHg 76%
18:00 +18°C° 0 mm 3 mps 757 mmHg 81%
19:00 +18°C° 0 mm 3 mps 757 mmHg 86%
20:00 +17°C° 0 mm 3 mps 757 mmHg 90%
21:00 +17°C° 0 mm 2 mps 757 mmHg 91%
22:00 +16°C° 0 mm 2 mps 757 mmHg 92%
23:00 +16°C° 0 mm 1 mps 757 mmHg 92%

28 October, Wednesday

Time Temperature Precipitation Wind Pressure Humidity
00:00 +16°C° 0 mm 1 mps 757 mmHg 92%
01:00 +16°C° 0 mm 1 mps 757 mmHg 93%
02:00 +16°C° 0 mm 1 mps 757 mmHg 93%
03:00 +15°C° 0 mm 1 mps 757 mmHg 93%
04:00 +15°C° 0 mm 1 mps 757 mmHg 93%
05:00 +15°C° 0 mm 1 mps 757 mmHg 93%
06:00 +16°C° 0 mm 1 mps 757 mmHg 92%
07:00 +16°C° 0 mm 1 mps 757 mmHg 90%
08:00 +18°C° 0 mm 1 mps 757 mmHg 88%
09:00 +19°C° 0 mm 1 mps 757 mmHg 81%
10:00 +20°C° 0 mm 2 mps 757 mmHg 74%
11:00 +21°C° 0 mm 2 mps 758 mmHg 66%
12:00 +21°C° 0 mm 3 mps 757 mmHg 64%
13:00 +22°C° 0 mm 3 mps 757 mmHg 61%
14:00 +22°C° 0 mm 3 mps 757 mmHg 58%
15:00 +21°C° 0.1 mm 3 mps 757 mmHg 64%
16:00 +20°C° 0.1 mm 3 mps 757 mmHg 71%
17:00 +19°C° 0.1 mm 2 mps 757 mmHg 77%
18:00 +18°C° 0.1 mm 2 mps 757 mmHg 81%
19:00 +18°C° 0.1 mm 2 mps 757 mmHg 84%
20:00 +18°C° 0.1 mm 1 mps 757 mmHg 87%
21:00 +18°C° 0.2 mm 1 mps 757 mmHg 88%
22:00 +18°C° 0.2 mm 1 mps 757 mmHg 88%
23:00 +18°C° 0.2 mm 1 mps 757 mmHg 89%

29 October, Thursday

Time Temperature Precipitation Wind Pressure Humidity
00:00 +16°C° 0.2 mm 1 mps 757 mmHg 89%
01:00 +16°C° 0.2 mm 1 mps 757 mmHg 89%
02:00 +16°C° 0.2 mm 1 mps 757 mmHg 89%
03:00 +16°C° 0.2 mm 1 mps 757 mmHg 90%
04:00 +16°C° 0.2 mm 1 mps 757 mmHg 91%
05:00 +16°C° 0.2 mm 1 mps 757 mmHg 91%
06:00 +16°C° 0.4 mm 1 mps 758 mmHg 91%
07:00 +16°C° 0.4 mm 2 mps 758 mmHg 90%
08:00 +16°C° 0.4 mm 2 mps 758 mmHg 89%
09:00 +18°C° 1.1 mm 2 mps 758 mmHg 83%
10:00 +19°C° 1.1 mm 3 mps 759 mmHg 76%
11:00 +20°C° 1.1 mm 4 mps 759 mmHg 70%
12:00 +20°C° 1.5 mm 3 mps 759 mmHg 71%
13:00 +20°C° 1.5 mm 3 mps 759 mmHg 71%
14:00 +19°C° 1.5 mm 3 mps 759 mmHg 72%
15:00 +19°C° 1 mm 2 mps 759 mmHg 75%
16:00 +18°C° 1 mm 2 mps 759 mmHg 78%
17:00 +18°C° 1 mm 1 mps 759 mmHg 81%
18:00 +18°C° 0.3 mm 1 mps 760 mmHg 82%
19:00 +18°C° 0.3 mm 1 mps 760 mmHg 83%
20:00 +17°C° 0.3 mm 2 mps 760 mmHg 84%
21:00 +16°C° 0.1 mm 2 mps 761 mmHg 85%
22:00 +16°C° 0.1 mm 2 mps 761 mmHg 86%
23:00 +16°C° 0.1 mm 3 mps 761 mmHg 87%

30 October, Friday

Time Temperature Precipitation Wind Pressure Humidity
00:00 +14°C° 0 mm 3 mps 761 mmHg 88%
01:00 +14°C° 0 mm 3 mps 762 mmHg 88%
02:00 +14°C° 0 mm 3 mps 762 mmHg 89%
03:00 +14°C° 0 mm 3 mps 762 mmHg 89%
04:00 +13°C° 0 mm 3 mps 762 mmHg 89%
05:00 +13°C° 0 mm 3 mps 762 mmHg 89%
06:00 +14°C° 0 mm 3 mps 763 mmHg 86%
07:00 +14°C° 0 mm 3 mps 763 mmHg 84%
08:00 +14°C° 0 mm 3 mps 764 mmHg 82%
09:00 +17°C° 0 mm 3 mps 764 mmHg 75%
10:00 +19°C° 0 mm 3 mps 764 mmHg 68%
11:00 +20°C° 0 mm 4 mps 764 mmHg 61%
12:00 +21°C° 0 mm 3 mps 764 mmHg 58%
13:00 +21°C° 0 mm 3 mps 764 mmHg 55%
14:00 +22°C° 0 mm 3 mps 764 mmHg 52%
15:00 +21°C° 0 mm 2 mps 764 mmHg 56%
16:00 +20°C° 0 mm 2 mps 764 mmHg 60%
17:00 +20°C° 0 mm 1 mps 764 mmHg 64%
18:00 +19°C° 0 mm 1 mps 765 mmHg 66%
19:00 +18°C° 0 mm 1 mps 765 mmHg 69%
20:00 +16°C° 0 mm 1 mps 765 mmHg 71%
21:00 +16°C° 0 mm 1 mps 765 mmHg 73%
22:00 +16°C° 0 mm 1 mps 765 mmHg 75%
23:00 +15°C° 0 mm 1 mps 765 mmHg 76%
Show more